Wind_Gust
15 15 15 15 15 15 15 15 15 15 15 15 16 17 17 16 16 16 16 16 15 15 15 15 14 14 14 15 15 11 12 16 12 13 13 13 11 8 11 8 8 11 8 12 12 15 15 15 17 16 18 19 17 19 18 15 20 22 26 22 20 19 16 18 15 17 15 14 14 14 12 14 15 13 15 14 21 25 24 26 24 24 24 24 29 26 25 25
15 15 15 15 15 15 15 15 15 15 16 16 16 17 17 16 16 16 16 16 15 15 15 14 14 14 14 14 14 11 15 15 12 9 18 8 4 10 8 6 7 9 8 14 14 13 16 16 17 16 19 19 12 20 19 21 17 26 21 19 19 15 17 12 13 12 13 16 10 12 10 11 18 11 14 13 24 20 25 24 24 29 27 25 25 25 25 24
15 15 15 15 15 15 15 16 15 16 16 16 16 16 16 16 16 16 16 16 16 15 14 14 13 13 13 13 12 8 15 13 14 17 13 7 8 10 7 5 8 11 15 10 9 10 10 17 18 15 15 22 14 25 17 28 22 14 18 19 21 13 15 11 11 13 14 14 11 15 13 11 15 13 12 19 20 19 21 20 20 27 24 25 25 24 23 23
15 15 15 15 15 15 16 16 16 15 15 16 16 16 16 16 16 17 16 16 16 15 14 14 13 12 12 12 9 15 16 16 21 13 15 6 10 9 6 7 9 10 12 10 9 8 8 13 13 12 18 18 17 17 20 25 23 21 21 17 20 14 12 14 12 16 13 13 15 13 13 19 28 26 25 20 18 21 20 17 19 24 26 26 27 24 21 21
16 16 16 16 16 16 17 17 16 16 16 16 16 16 17 17 16 16 16 16 16 14 13 12 12 11 11 11 7 17 15 16 19 12 10 8 10 8 9 9 9 12 11 11 11 9 10 12 15 12 13 23 17 14 20 18 15 19 17 18 14 11 11 15 12 11 12 9 11 16 20 25 21 24 27 24 22 24 24 21 23 25 28 30 25 23 22 22
16 16 16 16 17 17 17 17 17 16 16 16 17 17 17 17 17 17 17 17 16 14 13 12 12 11 10 8 16 12 15 31 10 12 8 7 11 10 9 9 8 13 11 11 11 8 10 12 15 15 17 17 14 20 17 12 11 15 17 13 10 12 12 14 12 10 10 11 14 24 21 20 23 27 28 30 29 24 24 23 27 27 29 29 26 24 22 19
17 17 17 17 18 18 18 17 17 16 16 17 17 17 18 17 17 18 18 17 16 14 13 12 11 11 11 9 11 15 23 24 9 13 10 9 9 9 8 7 10 11 11 13 10 11 10 11 15 14 16 18 13 22 13 11 9 13 19 13 16 10 12 15 15 10 10 16 26 25 21 22 21 30 29 33 25 25 25 25 28 29 27 27 28 21 21 19
17 17 17 18 18 18 18 18 17 17 17 16 17 17 17 17 18 19 18 17 16 14 13 11 10 10 9 14 14 19 23 25 12 12 11 10 12 12 11 10 11 11 12 11 11 8 8 12 13 13 13 16 14 15 15 15 9 15 18 12 13 10 15 14 15 15 16 22 24 23 28 29 32 30 31 30 24 24 25 25 28 26 27 26 24 22 20 19
18 18 18 18 19 18 18 19 18 17 17 17 17 18 18 17 18 19 18 17 16 14 12 10 9 7 7 11 11 28 24 7 9 14 16 14 11 12 14 13 13 14 11 10 9 9 14 14 9 15 18 14 11 16 13 14 23 15 19 17 17 18 18 20 19 20 20 26 24 29 30 26 21 31 37 26 24 23 24 26 26 24 25 24 23 22 19 19
18 18 18 18 18 18 18 19 19 18 17 17 18 18 17 17 17 18 18 17 16 14 12 9 7 7 12 15 11 26 13 11 10 16 15 13 12 12 15 12 14 13 13 9 9 10 14 15 13 10 10 17 8 15 9 15 22 15 17 17 21 22 22 21 21 22 22 23 23 31 30 29 30 26 27 26 21 23 29 29 26 24 23 21 22 21 19 19
18 19 18 19 18 18 19 19 19 19 17 17 17 17 16 17 16 17 17 17 15 13 10 9 7 10 14 14 18 23 10 10 13 16 16 15 14 15 14 13 13 14 12 9 10 11 10 9 8 9 13 19 14 17 13 17 16 18 20 19 19 21 31 28 22 21 19 25 24 32 32 32 28 31 26 22 21 26 31 30 29 26 24 25 22 21 19 19
19 19 19 19 19 19 19 20 20 19 18 17 17 16 16 17 17 16 15 14 13 11 8 7 5 14 15 13 23 19 12 7 15 15 16 18 15 16 10 11 13 13 13 14 12 11 10 10 11 12 17 15 22 20 20 14 16 18 13 20 19 25 35 31 23 19 16 19 16 17 29 36 34 25 20 20 23 28 31 31 29 27 25 23 22 21 19 20
19 19 18 19 19 19 19 20 20 20 19 18 16 15 16 15 15 15 13 12 10 9 6 6 9 12 13 17 17 13 8 9 13 12 14 17 15 12 12 10 13 13 13 14 12 12 10 11 10 9 11 13 14 15 17 14 17 16 15 15 18 20 27 30 21 22 17 18 16 14 20 26 31 25 23 17 24 28 31 31 28 27 25 25 22 22 21 21
19 19 19 19 19 19 19 20 20 20 20 18 17 16 16 14 13 13 12 11 7 5 7 7 16 12 12 24 11 10 8 10 12 13 16 14 14 13 12 12 12 12 9 11 9 10 9 10 11 9 8 11 20 16 18 19 16 18 13 17 16 22 22 26 24 21 17 22 18 18 22 23 28 30 25 19 24 29 31 28 27 26 24 24 24 24 22 21
19 19 20 19 19 19 20 20 20 19 19 20 18 18 16 16 13 13 10 8 8 7 7 8 14 13 16 18 10 12 9 12 13 9 13 15 15 13 12 11 9 9 8 8 8 8 8 10 13 12 17 10 14 18 18 17 14 14 21 17 17 21 20 27 28 25 21 29 28 30 31 21 22 29 24 19 26 30 32 27 26 26 24 25 24 23 22 22
19 19 20 19 19 19 19 19 18 17 18 20 20 21 18 14 11 8 9 6 9 9 14 13 14 14 11 20 14 13 12 9 10 9 8 13 12 12 9 8 8 9 11 10 9 11 10 9 16 13 13 17 16 13 13 19 16 16 17 12 14 19 18 18 29 25 19 31 37 23 30 22 18 26 21 23 30 30 30 29 28 25 24 24 23 22 22 23
19 19 19 19 18 19 19 18 17 15 16 19 20 13 9 10 13 12 11 11 12 12 14 11 10 13 17 15 12 10 14 12 8 9 7 9 11 10 10 11 10 10 11 13 12 12 11 13 11 14 14 15 11 12 14 14 14 15 11 16 12 15 23 24 22 30 31 31 34 30 36 22 19 21 26 26 31 30 29 26 25 27 25 24 24 23 22 23
19 19 19 18 18 18 18 17 18 15 14 16 15 7 12 12 14 13 10 11 10 12 14 13 11 14 29 14 14 17 12 11 13 11 9 9 8 9 9 12 11 10 14 17 13 13 12 14 14 18 15 18 16 15 16 12 13 11 14 18 18 19 19 19 19 20 33 30 35 31 33 25 24 24 25 21 25 28 26 26 27 26 24 24 24 24 23 24
19 19 18 17 18 17 18 18 17 15 12 10 7 13 11 9 15 15 13 15 14 13 16 19 17 18 21 16 11 11 11 10 8 10 11 9 10 9 11 9 10 16 16 14 14 10 13 13 13 17 19 18 19 18 16 13 12 13 14 16 19 23 23 28 27 23 31 31 34 30 29 27 27 25 22 22 21 27 26 25 26 26 26 25 24 24 22 23
18 18 19 19 17 17 17 19 17 15 11 8 13 11 13 16 18 14 11 13 21 16 14 12 9 9 12 12 14 16 9 11 14 16 12 8 12 11 13 12 15 17 13 17 16 14 12 21 20 17 18 16 13 13 13 11 15 17 16 18 21 28 27 26 24 26 28 37 31 29 29 26 24 24 20 17 21 25 25 24 24 23 24 24 24 24 24 23
19 19 19 18 18 16 17 18 18 15 9 15 14 14 17 17 14 18 18 15 10 10 11 9 10 11 15 13 12 15 10 16 18 22 18 8 11 15 15 15 18 18 17 11 12 10 16 22 19 16 14 13 10 9 12 19 13 17 16 18 23 19 20 13 14 12 16 32 28 27 33 30 26 24 21 21 27 24 20 22 22 22 23 23 22 22 23 24
19 18 19 18 18 17 17 18 18 13 9 15 16 22 16 17 12 12 14 15 13 9 8 9 9 9 8 10 10 11 17 19 22 25 23 18 12 19 14 18 13 20 13 13 15 18 22 20 18 12 11 9 11 12 13 15 16 10 15 18 21 22 27 26 31 27 27 36 30 30 35 30 27 26 26 26 25 23 21 19 18 20 22 21 20 19 21 21
18 18 18 18 18 17 16 17 16 12 11 12 19 16 16 13 11 9 13 15 11 10 9 13 12 15 12 11 15 13 16 22 19 23 28 23 14 17 9 15 15 14 11 11 16 12 17 19 16 12 10 11 14 13 15 15 13 13 18 20 19 26 22 26 21 18 17 26 31 34 36 29 25 27 28 25 25 25 23 22 21 20 22 21 19 17 18 19
17 17 18 18 19 17 18 16 15 9 10 12 18 17 11 12 11 12 13 13 12 15 13 11 11 15 16 14 15 17 21 20 16 22 21 21 16 10 15 14 20 19 23 19 21 24 22 16 13 9 10 11 15 11 12 10 14 15 15 20 23 18 18 24 31 34 34 33 32 34 37 31 25 25 26 23 22 25 25 23 24 22 21 20 17 16 16 19
16 17 17 18 20 18 19 15 8 11 8 9 16 12 12 11 11 12 14 11 15 16 12 12 7 16 14 10 11 11 17 20 20 17 17 17 13 12 17 11 14 21 16 15 21 22 20 15 9 9 13 10 12 14 12 14 14 18 19 20 16 21 28 30 33 29 28 29 21 13 24 23 18 21 23 21 23 26 23 24 22 21 20 19 18 18 20 21
16 16 17 17 20 21 15 7 9 8 10 13 13 14 13 11 10 13 17 13 16 20 18 12 16 13 13 12 17 9 13 17 13 20 17 16 10 13 14 15 15 21 16 18 23 23 17 11 10 14 14 14 14 16 12 16 13 16 18 19 20 25 24 20 19 17 21 20 20 17 23 19 15 19 17 20 23 24 22 22 21 20 20 20 20 20 21 21
15 15 15 16 17 21 9 9 9 10 10 13 12 14 13 11 9 13 15 15 13 16 14 18 17 22 19 16 12 11 14 20 11 18 22 21 10 9 13 20 17 14 8 9 21 22 11 14 14 14 15 16 15 16 15 16 12 22 20 25 24 27 25 17 18 20 23 18 24 26 25 32 22 16 14 17 20 20 20 20 19 20 19 19 19 20 19 21
15 15 14 15 15 11 10 8 9 10 14 10 13 13 11 9 13 12 19 12 15 11 12 16 15 12 15 12 19 19 15 15 17 20 16 16 12 14 17 15 13 14 10 17 18 17 13 15 16 16 13 20 21 17 14 13 19 22 22 27 26 25 22 21 20 22 22 19 23 21 19 25 19 17 12 14 20 17 18 17 17 17 17 18 18 20 19 19
14 14 13 12 14 10 13 8 10 11 10 10 12 11 9 11 14 17 14 14 14 13 15 13 13 11 14 10 26 15 15 24 18 17 19 10 23 12 18 15 16 20 18 13 22 16 16 16 16 15 18 19 16 15 13 13 16 18 23 23 21 18 18 16 18 16 15 16 18 17 16 23 21 15 17 12 16 16 16 16 15 15 16 17 17 17 18 18
14 13 12 12 11 8 8 8 9 10 9 12 11 9 9 11 13 15 10 7 12 11 11 13 15 12 14 12 18 19 21 18 16 15 18 17 17 20 18 11 11 21 24 22 22 18 16 11 14 21 18 15 13 15 13 12 19 24 23 22 20 17 16 16 12 14 16 16 18 13 12 12 18 16 16 17 15 14 15 14 14 13 15 16 15 16 17 17
13 12 11 9 9 10 10 10 12 9 10 11 11 11 12 18 14 12 6 13 14 15 12 11 13 10 11 12 15 14 18 19 18 19 18 19 22 20 17 19 15 22 20 21 22 19 17 15 13 16 13 11 10 16 15 16 20 19 21 21 21 18 17 14 15 15 14 14 14 11 10 15 17 17 15 16 15 13 12 14 13 13 15 15 14 16 16 16
11 10 9 10 12 12 10 10 10 9 11 11 11 13 14 12 16 10 8 12 15 13 13 12 11 13 13 17 19 19 14 14 18 20 18 18 20 22 23 13 14 16 16 13 20 14 18 19 14 13 11 19 12 13 15 13 13 15 17 16 16 15 19 15 19 13 11 14 15 12 11 12 17 15 18 17 15 14 10 13 14 13 14 13 15 14 15 14
11 9 7 9 6 9 10 10 9 9 11 11 12 9 15 13 4 11 10 10 9 13 11 10 11 9 8 12 18 15 16 16 12 13 10 16 13 18 16 19 13 15 13 11 15 15 19 16 21 21 11 24 19 16 20 21 14 15 18 17 15 12 9 9 12 13 17 16 13 12 11 13 15 14 13 15 13 13 13 12 12 14 13 12 14 13 14 13
13 9 11 9 11 12 11 10 11 12 11 9 11 13 15 10 6 9 9 10 13 9 8 8 9 12 12 13 11 12 16 16 14 18 12 12 15 13 15 18 18 10 13 13 8 10 12 19 23 20 19 20 19 21 22 18 14 17 14 15 15 14 14 10 13 12 11 17 17 10 16 14 17 16 16 13 13 13 13 12 13 12 12 11 12 12 13 13
9 9 8 9 9 13 17 12 10 10 11 12 19 15 8 7 10 11 12 11 12 9 11 9 9 10 13 13 8 10 14 11 12 14 20 15 15 15 15 17 16 16 9 13 12 10 16 21 17 14 12 14 18 14 14 10 12 10 11 15 14 14 14 13 17 13 16 19 17 15 10 10 14 13 11 12 14 14 13 12 11 11 10 11 10 11 12 13
9 11 10 10 8 9 8 9 8 10 11 13 17 13 7 12 9 10 12 11 9 8 12 12 12 13 12 12 10 9 10 14 12 10 16 17 17 15 13 14 18 17 13 12 11 11 15 17 11 13 10 16 15 13 12 13 13 19 19 14 19 14 18 17 8 14 9 13 13 8 14 14 13 16 15 15 17 16 14 14 13 11 11 9 10 11 12 12
9 10 11 8 9 11 7 9 9 11 16 16 16 6 10 11 12 10 9 10 10 10 11 14 15 15 10 12 12 12 11 10 14 13 13 11 15 18 14 13 13 14 13 18 10 12 13 18 12 12 16 15 8 10 15 15 15 16 16 17 13 14 12 15 11 10 15 12 11 14 12 15 17 16 21 18 20 18 17 15 14 11 12 11 12 10 11 12
10 10 10 12 13 10 8 8 9 14 13 15 11 5 9 10 9 9 8 8 9 9 13 9 12 12 8 11 14 14 11 14 14 10 14 13 15 14 11 12 12 14 14 9 14 10 14 17 16 12 10 13 13 14 14 18 19 20 22 14 16 9 12 13 17 10 11 9 12 14 10 14 20 15 22 21 22 19 18 16 15 15 14 13 12 12 10 9
8 12 14 12 11 9 8 8 15 12 12 17 13 10 9 12 10 7 8 9 8 8 12 10 10 10 11 10 11 14 17 14 8 11 12 14 13 16 14 14 11 14 11 11 13 10 9 12 19 10 11 11 14 19 15 17 15 15 14 12 9 16 16 15 10 13 17 10 9 10 13 12 21 17 20 22 22 20 18 17 17 16 15 15 13 13 11 11
14 14 13 8 10 7 9 9 12 14 15 9 10 13 11 14 13 11 8 10 8 10 10 8 8 13 10 12 10 13 13 13 13 14 13 12 14 10 14 8 14 11 12 9 10 9 9 13 9 17 12 16 17 21 18 16 15 15 17 14 12 14 11 18 13 14 13 15 9 12 13 15 15 13 18 20 21 19 18 19 17 16 15 14 13 12 10 10
8 11 13 8 12 10 11 20 19 14 15 13 11 16 10 12 13 11 9 8 9 9 11 10 8 9 11 15 14 9 13 13 14 17 12 13 16 11 16 16 12 11 9 9 11 10 7 8 11 10 16 20 17 13 11 13 15 13 13 12 12 12 15 14 10 11 10 14 11 9 10 15 16 11 14 19 20 20 18 16 16 16 15 14 13 11 10 11
14 15 14 9 13 9 13 13 14 8 14 15 16 11 15 8 14 13 13 11 10 14 8 14 14 13 10 11 13 11 13 14 12 12 15 14 13 16 13 9 11 11 15 10 12 11 13 12 16 13 16 18 15 13 9 8 10 16 15 13 11 9 13 15 10 11 11 13 12 13 9 13 13 9 11 16 19 18 16 15 15 14 14 14 14 11 11 11
9 14 9 9 12 11 15 17 12 11 15 17 12 15 10 10 10 10 11 10 11 8 10 12 10 10 10 9 8 10 9 16 14 16 11 15 17 16 14 12 10 10 10 14 11 10 9 16 16 14 15 16 16 14 12 9 12 13 17 14 10 13 15 15 16 12 11 11 13 12 7 14 14 10 10 9 14 14 15 15 16 15 14 15 14 12 12 12
10 14 12 8 8 10 14 12 15 14 18 14 11 15 10 13 9 13 11 11 11 10 8 11 10 12 11 7 9 12 9 11 9 8 12 7 14 10 11 11 12 10 15 12 12 12 10 10 16 12 12 19 18 17 16 13 13 16 14 14 11 9 10 11 11 9 12 13 13 15 9 11 17 11 14 14 15 15 16 16 15 16 15 15 15 13 12 12
15 10 7 15 16 12 10 12 17 18 17 15 16 14 14 11 13 13 11 13 9 10 9 11 9 10 11 7 12 9 9 11 14 9 11 9 15 7 9 10 11 12 11 12 8 10 14 10 12 9 7 7 6 9 11 12 16 13 11 10 12 12 12 14 9 10 9 8 10 10 13 17 16 15 17 17 17 17 17 16 17 17 15 15 14 13 13 13
14 14 14 12 17 15 14 8 9 17 18 16 9 10 8 18 12 10 10 16 12 12 15 15 10 10 13 12 12 11 13 10 9 14 11 12 13 12 10 10 12 14 12 13 10 10 12 8 12 15 16 16 17 16 13 10 9 13 11 10 11 10 11 12 11 10 12 9 11 15 13 13 14 16 18 18 19 19 18 18 19 19 17 16 13 13 13 13
9 10 10 12 14 15 14 10 13 13 15 10 11 9 12 12 15 14 9 11 9 9 10 9 10 10 10 10 11 13 9 13 12 14 9 12 11 13 9 9 10 11 10 9 9 13 10 12 13 13 15 15 13 11 9 10 10 8 8 10 9 11 12 14 12 13 10 17 13 13 11 11 12 11 12 15 17 17 17 17 19 18 17 17 16 14 9 14
10 10 8 12 13 16 14 10 9 14 11 7 12 7 13 14 11 12 12 13 12 7 8 9 10 9 10 8 11 10 11 12 11 13 10 10 12 12 15 10 10 12 12 9 9 11 9 9 9 8 12 9 9 8 8 8 10 9 9 10 9 11 10 12 10 9 11 12 13 13 11 13 15 14 15 16 17 19 19 20 17 14 14 14 14 16 17 17
11 13 10 10 9 11 12 11 9 14 13 10 14 8 13 10 12 12 9 14 11 11 9 6 10 9 7 8 9 11 14 12 6 10 9 11 10 10 15 14 12 9 9 11 11 10 13 13 9 8 12 11 10 8 7 10 7 9 9 9 9 11 11 10 9 8 13 11 11 13 13 16 18 18 16 15 13 14 14 11 12 15 16 16 17 18 18 17
14 11 12 9 14 14 10 9 12 13 14 7 8 9 10 11 13 13 10 8 11 9 8 9 12 10 8 7 7 12 13 10 9 15 11 10 10 9 10 11 14 11 10 10 7 9 14 10 7 9 11 11 10 8 8 10 11 13 8 10 10 9 11 8 10 9 10 14 14 13 14 18 15 12 14 10 9 10 12 15 17 17 17 17 17 17 17 17
9 10 8 16 18 13 10 10 12 13 14 12 14 11 10 12 15 11 14 11 9 9 9 12 15 12 8 7 6 8 9 9 10 8 15 11 9 12 10 11 9 13 9 10 8 7 10 9 10 11 8 10 9 12 9 10 13 14 14 12 12 12 13 11 12 11 12 13 9 10 15 15 17 9 8 10 9 12 15 16 16 16 17 16 17 17 17 16
7 7 8 11 13 9 10 8 9 11 11 11 12 14 9 15 14 14 15 10 11 10 11 14 11 10 12 10 12 12 11 11 10 13 16 10 10 11 10 12 12 10 9 13 9 9 9 12 9 8 8 8 8 9 11 12 14 18 14 11 10 10 11 11 11 9 12 11 14 11 15 16 14 12 13 10 10 11 12 15 16 17 16 16 17 17 17 16
Wind_Speed
10 10 10 10 10 10 11 10 10 10 10 10 9 10 9 9 9 8 8 8 8 8 8 8 8 7 8 9 9 7 9 7 3 5 6 6 5 4 3 5 5 7 4 5 5 7 7 7 8 8 7 8 6 7 7 6 8 8 8 7 7 7 5 8 5 4 6 5 6 7 4 6 7 6 6 6 12 15 14 15 12 14 14 13 15 16 15 15
10 10 10 11 11 11 11 11 11 11 11 10 10 9 9 8 8 8 8 8 8 8 8 8 7 7 8 7 9 6 9 7 5 2 8 3 1 3 3 4 5 3 5 6 7 6 7 8 9 8 8 6 5 8 9 7 7 10 7 6 6 4 6 2 4 3 2 7 3 4 2 3 9 1 3 1 13 10 13 9 12 15 14 14 15 16 15 13
10 11 11 11 11 11 12 12 12 12 11 11 10 10 9 9 8 8 8 8 8 8 7 7 7 6 7 6 5 4 7 6 6 8 5 5 1 3 3 3 5 2 7 3 1 1 3 9 9 7 5 8 4 11 8 10 9 5 6 7 8 3 7 1 1 1 1 2 3 8 1 4 8 6 2 10 8 11 9 7 7 12 15 14 14 13 13 11
11 11 11 11 12 12 12 13 13 12 11 11 10 10 9 8 8 8 7 8 8 7 7 7 7 8 6 7 5 7 8 8 9 4 7 4 3 4 3 3 3 6 5 3 0 1 0 5 6 4 7 7 6 7 8 10 8 8 8 5 8 5 2 5 3 2 3 2 1 7 3 11 16 11 9 6 9 10 8 4 7 10 14 14 14 12 10 9
12 11 12 12 12 13 14 14 13 13 12 11 10 9 8 8 7 7 7 7 7 7 7 6 6 7 7 5 6 7 7 4 6 5 4 6 2 2 3 3 5 5 4 1 4 1 4 5 6 4 4 8 7 5 9 9 5 7 7 8 6 2 1 5 4 5 3 3 3 9 11 12 6 12 13 12 10 7 8 9 11 12 14 15 12 9 8 11
11 12 12 13 13 14 14 14 14 12 11 11 10 9 8 7 7 7 7 7 7 7 6 6 6 6 6 1 6 4 5 10 1 4 7 4 3 2 0 2 2 6 4 4 4 1 3 5 7 6 5 7 5 7 7 3 2 4 6 5 3 4 3 6 3 4 4 2 7 13 10 6 12 12 13 18 16 13 13 14 15 17 17 14 10 7 7 9
12 12 13 13 14 15 15 14 14 13 12 10 9 8 8 7 7 7 7 7 7 7 6 5 6 6 3 5 4 6 7 8 2 5 8 6 3 3 4 4 6 5 5 5 3 4 3 4 7 6 7 8 5 9 5 4 0 4 7 5 6 3 5 4 4 1 3 8 15 12 8 9 12 17 15 19 14 13 15 14 18 18 15 11 9 6 8 11
12 13 13 14 15 15 15 14 14 13 12 10 9 8 7 6 7 7 7 6 6 6 6 5 4 6 3 5 6 6 11 10 5 6 7 5 6 6 6 4 5 5 5 4 4 0 1 3 4 4 4 5 5 6 7 7 2 5 7 5 5 3 6 6 7 8 9 14 13 14 14 16 18 14 18 17 15 13 15 16 16 17 17 15 12 10 11 11
12 13 14 14 15 15 15 14 14 14 12 11 9 8 8 7 7 7 7 6 6 6 5 5 4 3 3 3 3 14 10 0 3 7 9 7 5 6 7 5 6 7 4 3 3 2 6 6 1 6 7 5 3 8 5 4 9 6 9 7 8 9 10 8 11 11 12 11 11 15 15 11 11 20 20 14 13 13 13 15 15 14 15 15 14 13 11 11
13 13 14 14 15 15 15 15 15 14 12 11 10 9 9 9 8 7 6 6 6 6 6 5 5 4 6 6 3 10 5 3 3 7 8 6 6 6 8 5 6 6 5 1 2 3 6 5 6 2 3 9 0 6 2 2 9 6 8 9 11 12 11 11 12 13 13 11 14 17 17 17 14 9 11 11 12 11 12 14 14 15 14 12 12 11 10 10
13 14 15 15 15 14 14 14 14 13 12 11 10 10 10 10 9 8 7 6 6 5 6 6 2 6 6 6 5 9 3 4 5 7 9 8 7 8 7 6 6 6 5 2 3 4 3 3 2 1 4 7 6 8 3 7 9 9 9 8 10 12 14 11 10 9 9 12 13 19 19 18 16 16 11 9 9 11 12 14 15 14 13 13 12 11 10 10
14 15 15 15 15 14 15 14 14 13 12 12 11 11 11 10 9 7 7 6 4 5 4 4 3 4 6 5 10 7 5 1 5 6 7 9 7 8 4 4 5 6 6 6 5 4 3 3 4 4 4 5 8 11 9 7 8 9 4 9 10 11 13 14 10 9 7 9 7 6 16 20 15 13 11 10 8 9 11 13 15 15 13 13 12 9 8 11
14 15 15 15 14 14 14 14 13 13 12 12 11 10 10 9 8 7 5 6 4 4 5 5 6 3 5 6 7 6 2 1 4 5 6 7 6 4 4 4 6 6 6 6 5 4 3 3 4 2 3 2 5 2 7 6 9 7 5 6 9 8 10 13 5 6 7 3 4 4 3 9 11 10 8 8 9 10 11 11 12 12 12 12 12 10 10 11
15 15 15 14 14 13 14 14 13 12 12 11 11 10 9 7 5 5 4 4 4 3 5 5 6 4 4 10 3 3 2 2 5 6 8 6 7 5 5 5 5 4 2 4 2 2 2 2 4 2 1 2 8 8 9 8 7 6 5 6 5 8 4 10 7 3 6 4 5 9 6 6 7 7 6 7 7 9 9 11 12 13 12 13 12 10 10 10
15 15 14 14 13 14 14 13 12 12 11 11 10 9 7 2 3 5 5 5 3 4 4 5 5 4 5 6 3 5 3 3 6 3 5 7 7 5 5 4 3 3 1 2 1 0 1 2 6 4 6 3 5 9 7 6 4 4 7 6 6 8 5 12 10 9 7 8 11 14 10 8 6 6 5 6 7 9 10 11 13 12 12 13 12 12 11 11
15 14 14 13 13 13 13 12 11 11 10 10 9 7 6 3 5 6 7 3 6 7 5 5 5 5 2 6 5 8 5 3 3 2 1 6 5 4 3 2 1 3 4 3 1 2 2 3 3 4 4 8 6 3 4 6 4 3 5 2 4 7 7 7 13 5 8 13 8 4 10 8 7 6 6 6 9 10 10 11 12 14 14 13 12 11 11 11
14 14 13 12 13 13 12 12 11 10 9 8 7 1 3 5 7 7 6 8 5 5 5 3 1 4 3 4 4 3 6 5 2 2 1 2 4 3 3 3 3 3 4 6 5 4 3 5 2 4 3 3 1 3 4 4 4 3 2 3 1 5 10 6 10 13 12 14 16 14 14 11 9 8 7 8 8 10 10 11 12 11 13 13 12 11 11 12
14 13 13 12 13 13 12 11 11 10 7 6 4 2 4 5 9 10 6 6 2 3 4 4 2 3 11 3 4 8 4 5 6 3 3 2 2 3 3 4 4 3 6 8 5 4 0 2 4 3 2 4 3 2 4 3 3 3 3 5 5 9 5 9 5 9 14 18 20 16 17 12 10 8 8 8 8 9 11 11 11 12 13 13 13 12 13 12
13 13 13 12 13 12 12 12 10 8 7 3 0 1 3 5 6 6 4 4 4 4 3 4 4 4 9 7 2 1 4 3 2 2 4 1 3 2 3 2 4 8 6 5 5 2 2 3 3 1 5 5 6 7 5 5 3 2 6 4 6 9 8 8 12 11 13 16 15 13 13 12 10 10 9 8 8 10 12 12 12 12 13 13 12 12 11 12
13 13 12 13 13 12 11 11 10 7 2 4 4 3 4 2 5 3 1 6 10 7 6 5 1 1 3 5 6 4 2 5 2 8 5 1 4 5 5 5 7 6 3 3 5 4 3 3 6 6 6 6 6 6 5 3 3 3 2 5 9 13 13 14 13 15 15 17 15 14 14 12 10 9 7 8 10 9 10 10 10 10 11 12 12 12 12 13
13 13 13 13 13 12 11 11 10 7 5 6 7 1 5 7 4 5 7 4 3 4 4 3 4 5 7 5 5 6 2 8 9 11 9 0 4 7 6 6 8 5 5 3 2 2 6 5 7 7 6 5 3 2 1 3 1 4 7 9 8 7 8 3 5 4 6 14 14 16 17 13 10 7 5 5 7 10 10 10 11 12 13 12 12 12 13 13
13 12 13 13 13 12 11 11 10 7 7 6 5 8 6 8 3 4 4 4 5 3 1 2 2 1 2 2 3 4 9 5 12 13 9 9 4 8 6 6 2 6 4 4 4 3 6 7 7 5 3 1 1 1 3 4 4 2 4 6 7 5 8 8 11 12 12 14 13 15 15 15 12 9 7 6 7 8 8 7 8 11 11 10 10 10 11 12
12 13 13 13 13 12 11 11 9 4 3 2 8 7 6 5 3 2 5 5 2 2 2 6 5 8 5 4 6 6 4 11 8 12 12 12 6 7 2 2 4 4 3 3 1 2 5 7 8 4 1 1 3 1 3 4 2 2 6 3 5 11 8 10 8 9 8 7 14 14 16 12 12 12 11 8 8 8 7 8 9 9 10 11 10 9 9 10
12 12 13 13 12 12 11 10 8 4 2 5 9 8 3 4 3 4 5 2 3 7 6 4 4 7 8 6 5 8 11 8 7 11 11 9 5 3 2 5 7 4 7 8 11 10 9 7 4 1 1 2 3 2 2 1 5 6 6 8 7 9 7 5 7 8 13 15 16 17 14 11 9 10 10 10 10 10 10 10 10 11 11 11 9 9 9 10
12 12 13 13 12 11 12 9 1 4 1 2 7 5 4 4 4 5 5 3 4 5 5 5 1 7 6 3 4 4 8 9 11 8 7 8 5 3 7 3 0 7 6 7 11 10 9 7 1 1 4 3 0 3 3 5 4 7 11 10 4 4 14 14 18 14 7 12 10 6 7 6 6 9 9 9 9 11 10 11 11 11 11 10 10 10 10 11
12 12 13 13 12 13 10 2 3 1 3 5 5 6 5 4 2 5 4 4 5 6 4 4 4 4 3 3 7 2 6 5 5 9 8 7 2 5 4 4 4 9 7 8 9 7 6 4 3 7 4 3 5 6 4 6 4 6 6 10 10 12 11 5 4 7 8 6 6 6 4 7 6 8 8 9 11 12 10 11 10 10 9 9 9 9 9 10
12 12 12 12 11 10 3 2 2 3 3 4 4 6 5 3 3 5 3 3 2 4 5 6 5 7 4 7 5 3 6 8 1 9 10 9 3 2 4 8 6 4 1 1 5 7 4 6 5 5 6 6 6 6 6 7 2 8 10 12 12 15 12 7 8 9 4 8 7 5 6 11 7 5 6 8 10 10 10 10 10 9 10 10 9 10 10 10
12 12 12 11 10 7 3 1 2 2 6 3 5 5 3 1 5 4 4 2 4 3 3 5 5 2 3 5 10 6 6 7 6 9 6 8 5 5 4 6 2 5 3 6 4 5 6 6 8 7 5 7 8 8 6 5 6 8 12 13 15 15 10 7 9 9 7 7 8 8 9 8 6 6 4 6 9 8 9 8 8 8 8 9 9 9 10 10
11 11 11 10 10 7 5 2 3 4 3 3 4 3 1 4 5 4 3 1 2 1 1 4 1 2 3 2 9 7 6 9 8 7 4 3 9 5 6 7 7 6 4 4 8 6 6 8 8 7 8 7 7 7 5 6 5 9 13 11 9 8 9 8 6 4 5 5 6 5 1 6 7 6 6 3 6 7 7 7 7 7 7 8 8 8 9 9
10 10 9 9 6 3 2 2 1 3 2 4 3 1 3 4 4 5 2 2 2 3 2 4 4 4 4 2 7 9 10 8 7 3 8 6 8 10 8 5 3 8 10 11 11 8 7 4 6 8 7 6 5 7 6 3 10 14 13 10 8 7 5 5 1 4 6 4 6 3 2 3 5 6 6 6 5 5 5 5 5 5 6 7 7 8 7 7
9 8 7 6 2 2 2 3 4 1 3 3 4 4 4 5 4 2 1 4 4 4 3 3 4 2 1 3 4 5 9 9 7 7 6 2 9 7 5 8 3 7 8 8 9 9 8 6 2 5 6 2 2 7 7 7 11 10 8 8 8 6 7 4 5 6 3 4 4 2 2 4 4 5 5 6 6 4 4 6 6 6 6 6 6 7 7 7
9 8 6 4 4 3 3 3 3 2 3 5 5 5 4 3 4 2 1 3 5 4 4 3 4 4 4 8 8 7 4 5 8 8 6 5 6 5 8 3 2 5 5 4 7 5 7 6 5 6 3 9 1 3 5 5 4 5 6 5 4 4 5 4 6 4 1 3 5 3 1 2 5 5 7 8 7 6 2 5 5 5 6 5 6 6 6 5
9 7 3 4 2 2 1 3 2 3 5 5 5 2 5 2 1 2 2 1 2 4 4 4 4 2 1 2 8 6 8 7 5 5 3 4 2 7 8 8 5 5 0 3 5 5 7 7 7 3 3 10 8 3 7 8 3 4 5 3 3 3 1 3 3 3 5 6 4 3 3 1 5 4 5 6 5 5 5 5 4 6 5 5 5 5 5 5
8 6 3 2 2 3 3 3 3 5 5 3 4 4 2 2 2 3 1 2 5 3 1 1 2 3 5 4 4 5 3 8 6 6 2 3 3 4 5 8 9 1 1 4 1 1 3 6 8 9 5 10 8 9 9 6 4 6 4 3 5 3 2 3 3 3 3 6 6 3 4 2 7 5 7 5 4 5 5 4 5 4 4 4 4 4 5 5
4 6 2 3 2 3 3 4 4 5 4 4 4 4 2 1 2 3 3 3 4 2 4 1 2 2 5 5 2 3 5 2 4 6 7 4 5 4 5 5 7 7 1 3 3 2 7 7 7 6 5 6 8 6 6 3 1 1 1 4 4 4 5 2 6 3 6 6 6 4 1 1 2 1 4 2 5 5 5 5 4 3 3 3 2 3 4 4
6 3 3 3 1 3 1 2 2 4 4 4 4 1 1 4 2 0 4 3 2 2 5 5 2 2 3 3 3 2 3 5 3 2 6 7 7 5 5 5 6 8 4 3 3 2 5 5 4 5 3 6 6 5 4 4 3 6 7 2 7 4 3 3 2 6 2 3 4 2 4 3 4 6 7 7 7 7 6 5 3 3 3 2 2 3 4 4
3 4 3 2 2 3 0 2 2 4 4 5 3 1 3 3 5 3 3 3 3 3 4 4 4 5 3 4 3 3 3 3 4 4 4 2 4 8 6 5 6 6 6 6 2 3 3 7 4 2 7 6 1 3 4 5 4 4 2 6 5 4 3 4 2 2 5 3 3 5 4 5 6 4 8 8 9 8 7 6 4 4 4 3 3 2 3 4
4 3 4 5 5 2 1 1 3 4 3 3 2 4 1 2 2 3 2 1 2 3 5 2 4 5 1 3 5 5 2 4 4 2 5 5 4 6 4 3 5 6 6 2 5 3 4 5 6 4 0 4 4 5 5 7 9 8 9 5 5 3 5 2 1 3 2 3 3 5 2 4 7 4 9 11 11 10 9 7 6 6 4 2 3 3 2 2
3 4 4 5 3 2 2 1 4 4 4 2 4 3 1 4 3 2 2 2 2 2 4 3 3 3 3 3 4 6 7 3 1 3 3 4 1 6 5 5 4 6 4 4 2 2 2 2 6 2 3 2 4 4 1 3 6 6 3 3 1 5 5 5 1 3 4 3 1 2 4 2 7 3 10 10 11 10 9 8 7 5 4 2 1 0 2 2
5 4 4 2 2 1 2 3 4 4 4 1 2 4 3 6 5 4 1 4 2 3 4 2 2 4 3 5 3 4 5 5 4 5 3 3 3 3 6 2 5 3 4 1 2 2 1 3 1 5 2 7 2 6 5 5 2 5 6 4 3 3 3 4 2 3 3 1 1 3 4 2 4 3 7 9 11 11 8 7 5 5 4 3 1 1 0 1
2 1 4 2 2 1 3 5 3 2 5 4 4 7 3 4 5 5 3 2 2 2 3 3 1 2 4 5 5 2 4 5 4 5 4 5 6 2 7 7 5 4 2 2 3 2 1 1 2 2 4 6 6 5 4 5 5 4 4 3 2 4 5 5 3 2 2 3 1 2 2 4 5 1 4 7 7 8 8 7 6 6 5 4 2 2 2 2
5 5 5 3 3 3 5 4 3 1 4 5 5 3 5 4 5 6 6 4 3 5 1 4 6 6 3 3 5 3 4 5 4 3 6 5 5 6 6 4 4 4 5 2 3 3 4 2 2 3 5 7 7 5 2 1 3 7 5 5 3 2 4 4 1 3 3 3 4 4 1 3 4 1 3 4 7 7 7 6 6 5 5 4 3 3 4 3
1 5 3 2 3 5 4 6 4 4 5 6 5 7 3 2 4 2 3 1 4 1 3 3 3 3 2 1 2 3 2 4 5 6 3 6 8 7 6 6 3 3 3 4 3 2 4 2 4 4 5 7 7 6 4 3 4 5 7 5 2 4 6 5 5 2 0 2 4 3 1 3 5 2 2 2 7 7 6 7 7 6 4 4 4 3 4 5
3 4 4 2 2 3 5 3 5 5 7 6 4 7 4 5 2 5 4 4 4 3 2 4 4 4 4 1 2 4 1 2 2 1 4 1 4 4 5 5 6 2 6 4 4 4 3 2 4 3 3 6 7 6 6 5 2 5 4 5 4 2 2 4 1 1 0 4 5 5 2 2 6 3 5 5 5 5 7 7 6 6 5 5 5 4 4 4
5 2 1 3 3 2 1 3 7 7 8 8 7 7 6 4 6 6 4 5 3 4 2 3 3 3 4 1 3 2 2 3 4 3 4 3 6 1 3 4 6 4 5 5 5 2 2 3 3 2 0 1 1 2 3 3 6 4 4 4 5 4 3 5 2 2 1 2 4 2 3 5 6 6 7 7 7 7 7 7 7 6 5 6 6 4 5 5
4 3 1 4 2 5 4 2 2 7 8 8 5 4 2 8 4 4 4 8 5 6 6 6 4 3 6 5 4 4 5 2 1 4 3 4 4 3 4 3 6 6 6 4 3 2 1 2 4 6 5 5 6 7 5 4 2 3 5 4 4 3 3 4 2 1 3 1 2 6 5 3 5 6 8 8 8 8 8 8 8 8 8 6 6 5 5 5
0 2 2 3 4 5 5 3 5 5 5 3 3 3 5 6 6 6 3 2 2 3 3 3 3 3 3 3 4 5 2 5 5 6 2 5 4 4 3 2 4 5 2 1 2 2 2 3 6 6 8 7 6 5 3 4 3 2 1 4 3 4 5 6 4 4 3 6 4 4 4 3 2 3 4 6 8 8 8 9 9 8 8 7 7 7 6 6
2 2 2 4 2 5 4 3 3 6 5 1 4 1 7 7 5 5 4 5 6 1 1 3 1 1 4 3 5 3 4 5 4 5 4 3 5 5 5 3 2 3 6 1 1 4 1 2 2 2 6 3 3 2 2 2 3 3 3 3 3 4 4 5 4 3 4 4 4 5 4 5 4 2 0 2 4 7 8 9 9 7 7 7 7 7 8 8
3 3 3 2 1 4 4 5 3 7 6 3 4 3 6 4 6 4 2 6 4 4 3 2 4 3 2 3 2 4 7 5 2 3 3 4 3 3 5 6 5 2 2 3 2 2 3 4 2 1 5 3 2 1 0 4 1 3 2 2 2 4 4 4 2 1 3 3 4 5 6 7 6 5 4 2 0 3 5 4 5 7 7 7 8 8 8 8
5 3 4 0 5 5 3 3 5 6 6 1 1 3 3 5 6 6 3 1 4 3 1 3 6 4 3 2 1 3 4 4 3 6 4 4 4 2 3 4 5 4 2 3 1 3 4 3 1 3 2 3 2 0 2 4 5 6 2 3 4 3 4 2 4 3 4 6 5 5 6 8 1 3 3 2 1 3 4 7 8 9 9 9 8 8 8 9
3 3 2 5 7 4 3 4 5 5 5 4 5 4 4 6 7 5 6 4 3 3 3 6 7 6 2 2 1 3 3 2 1 2 7 4 0 3 2 4 2 5 3 3 1 1 3 3 3 3 2 3 2 2 2 4 6 7 7 5 5 5 6 2 3 0 4 5 3 4 7 1 6 2 0 2 2 4 5 6 7 7 8 8 9 9 9 9
1 1 2 3 4 1 3 2 3 3 3 3 3 7 2 7 7 7 6 3 4 4 4 6 5 3 5 4 5 6 4 3 4 5 5 2 3 4 2 4 3 3 3 5 2 1 2 3 2 1 1 3 2 3 4 5 6 8 5 2 3 3 4 4 4 3 6 5 6 4 4 6 6 4 5 3 3 3 4 5 6 8 8 8 9 9 9 8
Wind_Direction
341 338 334 334 333 331 328 325 320 315 310 309 313 319 319 319 321 324 322 320 322 318 324 324 315 320 318 313 315 325 312 290 267 230 223 56 28 73 193 294 278 214 232 232 179 196 175 164 162 174 169 181 134 155 142 180 171 186 205 199 188 142 194 124 116 75 100 134 116 127 192 113 96 96 96 124 85 74 70 79 90 92 93 107 117 132 133 126
340 337 335 334 334 327 322 317 314 309 308 310 315 315 314 316 323 326 327 327 329 328 319 317 319 306 314 319 305 342 299 277 240 140 42 52 116 178 232 291 330 266 247 225 197 191 157 153 144 181 161 135 200 123 190 139 189 188 195 201 161 145 96 95 65 73 177 90 58 113 132 71 75 134 65 128 81 81 76 75 95 95 101 111 126 131 127 128
340 339 337 332 327 322 315 312 307 305 305 309 308 310 311 315 321 324 330 332 327 325 315 315 307 314 295 316 328 280 298 247 227 45 41 69 107 190 204 302 286 267 251 281 175 337 132 137 150 190 134 130 180 137 216 138 209 202 194 180 128 100 98 342 16 17 321 18 150 121 235 73 78 29 330 79 58 66 78 95 98 113 122 126 126 117 126 124
343 340 334 329 322 316 312 305 303 304 307 308 308 306 311 316 321 325 331 330 320 315 316 305 309 300 317 295 332 298 269 255 65 9 58 89 137 184 214 262 245 230 254 266 273 298 128 155 169 209 149 127 121 156 162 147 226 158 226 151 109 94 177 82 4 339 326 327 46 109 179 74 48 60 71 91 109 52 66 78 114 122 120 124 118 118 108 79
343 337 331 324 318 313 306 305 304 305 307 308 306 307 315 317 321 326 323 321 315 313 312 314 301 306 299 307 272 264 272 150 38 46 67 102 134 193 229 237 210 235 266 163 212 206 245 198 191 208 164 117 135 174 116 154 320 177 19 38 56 103 320 54 359 12 336 355 25 48 68 70 63 59 67 65 60 43 52 111 89 102 97 73 67 67 87 120
340 334 327 320 315 308 305 304 304 305 306 306 306 311 315 320 322 323 318 311 313 312 313 310 304 304 303 357 272 258 250 82 187 59 84 110 101 55 309 195 270 285 231 201 255 200 217 189 220 179 142 138 155 131 119 71 305 196 89 79 37 31 0 30 336 25 325 80 78 80 92 120 87 72 62 61 57 61 79 93 107 94 101 127 125 114 106 99
337 330 324 318 310 306 305 305 306 305 306 306 310 315 317 319 324 314 310 310 309 313 308 312 299 289 328 290 263 253 85 102 266 115 105 133 159 155 135 182 218 241 238 244 234 226 179 167 237 101 114 98 66 86 107 129 288 39 100 94 81 43 42 30 31 42 55 63 80 112 123 87 79 69 59 64 63 69 87 96 93 102 101 113 110 96 94 82
333 326 319 311 306 305 305 305 306 306 307 309 315 313 313 313 310 307 307 309 307 306 307 294 292 280 311 235 236 116 92 83 105 120 122 135 168 155 187 209 223 231 239 277 311 133 198 134 128 179 57 66 92 102 131 129 241 114 104 96 104 72 72 77 61 71 85 79 99 101 89 76 69 73 66 62 65 75 84 95 101 105 118 117 116 118 97 88
329 321 313 307 305 305 305 306 306 307 308 312 317 315 310 304 302 306 307 308 302 296 296 284 261 281 180 261 248 99 83 128 55 147 153 172 175 163 199 197 200 225 255 278 287 350 270 93 188 315 96 126 137 110 167 177 100 87 96 110 100 81 66 63 74 66 80 94 104 84 69 66 88 73 65 70 73 81 90 96 103 97 99 103 106 103 98 94
324 315 309 304 304 305 306 308 308 310 312 317 319 316 311 300 300 303 305 301 303 291 281 273 266 190 238 262 201 93 92 71 169 161 180 180 172 185 207 260 195 231 261 355 293 317 21 51 9 16 75 90 84 81 126 214 107 123 105 87 78 67 58 49 61 77 86 113 90 82 67 62 57 80 79 79 93 97 98 103 104 104 101 102 101 98 100 106
319 313 306 303 305 306 309 310 310 311 315 317 315 312 301 298 295 291 289 292 289 291 273 259 295 221 254 252 102 90 96 192 161 179 182 186 189 206 218 216 223 258 283 280 345 17 24 345 352 341 241 82 124 95 108 84 129 131 128 112 94 77 53 41 58 70 116 102 89 79 74 66 63 66 77 88 109 106 107 108 106 101 97 90 75 89 99 89
317 310 305 304 306 309 312 311 313 316 317 319 313 303 292 292 289 282 274 277 280 264 246 273 227 261 274 267 79 77 173 216 177 184 187 190 205 232 269 243 238 274 306 326 30 32 348 355 274 281 73 220 102 119 95 139 154 141 165 125 106 82 50 25 30 54 101 122 158 117 71 48 47 65 76 82 91 102 105 102 100 95 91 90 101 90 83 85
313 307 305 306 309 313 314 314 317 320 318 315 311 305 298 290 275 269 260 250 213 230 206 185 231 263 281 105 63 99 171 191 189 189 197 208 239 249 249 250 257 272 297 305 344 11 348 285 291 292 58 325 98 50 118 170 148 177 196 163 154 89 36 19 23 68 87 72 277 264 79 44 48 62 84 98 104 109 112 108 99 94 91 91 86 83 80 87
310 307 306 309 311 313 315 318 320 319 318 315 316 312 312 311 257 237 216 244 168 214 189 199 253 251 264 82 131 138 137 164 145 188 211 217 242 236 222 229 244 266 262 290 331 332 295 259 258 18 276 337 109 134 156 140 190 194 137 206 190 109 52 28 27 34 82 56 199 243 115 78 52 61 92 111 113 114 103 99 96 95 95 91 86 84 87 89
309 307 307 310 312 313 318 319 319 318 317 319 325 328 331 340 196 195 192 179 198 185 193 226 237 259 125 84 127 120 117 176 186 193 187 205 229 226 183 178 199 226 264 255 220 222 260 205 228 206 95 75 140 190 140 146 156 143 204 159 182 133 106 52 40 36 72 68 88 91 89 81 62 69 80 116 126 113 111 107 108 104 99 95 97 97 96 90
309 307 308 313 313 314 316 318 317 317 319 327 331 342 19 161 140 157 178 177 145 173 192 235 191 270 23 89 79 133 196 209 91 7 184 250 262 300 26 335 101 149 186 156 207 216 236 267 60 53 158 181 212 213 168 182 166 181 222 176 142 145 133 68 33 66 87 72 54 195 117 128 81 72 101 122 126 118 117 118 111 109 107 100 95 96 95 93
309 309 311 313 313 312 315 317 317 315 323 332 317 97 76 113 133 138 143 147 172 211 242 328 289 272 55 56 180 185 46 38 336 166 138 196 279 297 259 187 186 132 127 137 180 208 165 224 133 201 57 61 13 247 231 223 207 133 245 153 14 128 121 89 76 63 80 89 80 82 100 89 93 83 98 117 124 130 126 115 112 111 107 103 101 97 90 77
311 309 313 315 312 317 315 316 319 320 331 331 337 90 129 133 137 141 146 208 182 233 255 266 305 261 106 184 42 35 348 29 15 26 79 57 251 226 244 186 159 175 159 145 158 211 166 127 256 74 69 30 357 310 270 233 257 173 159 156 131 60 74 120 126 89 92 91 93 91 92 88 79 80 89 110 118 119 120 116 115 109 103 100 95 86 77 75
312 311 315 318 318 317 318 319 317 327 335 326 91 129 3 266 236 255 263 179 220 177 196 56 344 54 51 24 13 44 38 35 259 332 67 104 136 150 130 129 181 171 176 187 89 257 164 159 223 51 36 25 23 357 3 11 316 247 239 155 136 134 133 112 98 96 98 94 89 94 97 97 81 83 93 104 109 114 112 114 112 108 104 100 94 88 85 79
313 315 319 318 317 317 317 316 320 323 308 213 197 198 205 178 185 138 105 43 40 27 19 7 303 252 218 34 23 8 258 236 173 58 67 107 221 165 138 178 158 219 208 105 122 73 288 54 33 35 29 25 27 14 12 15 39 128 143 112 93 100 100 102 101 105 101 93 89 96 94 87 83 78 70 89 117 119 117 117 112 108 104 102 98 93 88 81
313 321 320 318 317 319 318 316 319 318 268 264 261 271 40 4 325 79 343 44 45 26 349 30 355 4 18 330 354 337 197 104 46 58 46 59 255 249 136 202 169 120 67 76 64 129 251 64 50 39 26 10 29 356 28 73 155 121 123 126 135 142 112 83 118 188 127 110 104 99 96 89 86 85 86 98 104 105 112 114 109 103 100 96 94 90 83 81
319 321 323 318 317 320 317 317 320 303 275 269 20 67 65 41 356 4 296 140 82 53 266 28 256 163 91 322 345 320 276 75 57 32 34 324 180 256 119 259 97 90 116 151 143 139 66 47 40 23 7 2 61 62 34 62 104 180 106 93 91 86 105 93 90 106 109 108 108 103 88 85 88 91 90 83 85 84 89 87 99 105 96 87 79 80 88 86
322 323 322 319 318 317 321 317 319 317 274 44 48 56 47 4 326 266 254 284 68 55 70 48 67 52 86 88 42 269 36 43 23 31 7 328 99 35 220 119 102 127 156 262 219 131 86 55 32 15 256 254 126 77 105 113 64 123 131 165 125 143 169 143 140 130 117 119 128 111 97 93 90 83 80 87 101 103 79 84 85 89 85 79 75 76 80 87
326 325 321 317 316 318 317 320 290 263 48 27 55 47 7 330 315 200 224 294 92 88 50 59 12 33 44 355 17 353 58 48 7 16 9 350 51 317 331 42 107 77 70 61 54 58 60 47 11 73 282 290 68 76 235 193 98 45 3 122 151 190 141 157 144 119 104 109 117 109 97 78 72 90 94 93 100 104 112 104 94 88 85 86 90 85 79 76
326 326 320 315 317 316 315 309 276 41 267 222 62 34 345 316 279 213 261 199 206 100 150 112 303 52 8 234 285 275 96 79 40 23 15 359 12 241 71 3 34 87 92 96 104 93 75 52 294 61 54 28 325 117 18 347 80 73 47 82 115 154 119 110 122 117 140 144 165 159 107 72 69 81 97 108 107 104 107 102 94 88 88 88 84 78 76 71
328 324 320 314 316 323 305 280 74 322 236 49 10 353 334 305 217 223 254 243 111 20 310 61 307 74 287 29 331 17 255 69 26 32 21 3 280 352 179 113 336 115 99 77 63 53 64 71 21 17 22 76 92 73 30 301 105 103 86 112 143 95 71 24 151 149 158 160 141 254 148 121 113 100 109 111 105 103 101 95 93 91 84 78 69 63 61 59
328 321 317 316 318 317 266 73 36 236 237 74 9 335 328 285 205 177 240 153 99 30 340 45 289 62 315 2 314 242 231 52 93 41 25 26 340 52 286 107 117 84 74 132 174 72 23 43 36 25 32 28 23 44 43 323 51 99 136 134 124 115 115 201 235 167 131 103 95 163 125 129 128 94 107 110 105 100 95 89 85 82 78 69 67 63 56 55
326 318 314 318 323 328 16 323 253 18 43 9 329 328 313 205 186 214 262 253 56 262 338 33 23 326 334 33 45 56 44 336 228 39 24 10 279 201 264 123 86 100 111 264 86 75 7 60 15 15 26 39 32 16 349 327 62 115 143 135 129 144 160 221 208 121 144 115 91 89 114 114 111 134 151 147 121 109 97 92 88 81 76 71 63 59 62 60
323 314 312 318 318 296 281 309 320 55 42 330 320 324 128 168 226 266 276 82 67 297 101 123 88 207 49 120 59 55 62 29 22 21 26 117 37 320 141 111 112 98 54 4 105 123 71 27 26 8 9 42 18 23 357 308 109 124 143 138 141 159 155 199 129 137 142 155 97 84 325 118 122 138 162 173 133 127 113 102 88 77 68 62 58 59 60 64
319 309 308 317 290 233 183 235 70 70 315 325 324 286 175 214 235 226 206 73 339 114 331 356 269 1 310 115 72 42 53 46 39 28 54 46 67 83 58 324 124 109 89 81 81 82 95 79 49 36 17 3 15 37 13 67 94 131 140 141 144 153 154 209 118 142 133 95 91 79 132 163 134 170 157 175 120 107 126 114 99 96 81 69 64 58 55 57
310 300 297 301 298 16 311 208 105 181 314 307 298 226 231 228 269 296 104 63 269 60 217 55 66 237 26 329 67 71 63 32 31 355 89 121 90 81 129 142 165 114 116 106 110 122 123 128 132 63 358 70 269 72 57 82 130 151 148 156 159 148 165 182 154 201 184 109 100 105 105 277 178 157 166 105 119 124 121 117 111 91 71 64 58 58 58 59
309 300 287 258 357 298 284 44 70 292 307 303 273 254 233 225 185 314 98 110 248 53 354 62 78 40 81 78 64 34 15 77 32 37 40 44 66 41 19 35 339 161 143 133 119 142 86 66 105 103 68 5 328 142 99 141 163 196 163 176 188 125 182 146 168 173 103 112 126 151 187 209 60 98 131 136 139 125 104 97 102 89 82 71 70 68 67 67
307 289 269 251 285 223 300 15 290 292 299 271 273 251 238 249 178 89 120 230 85 334 101 307 51 66 70 108 69 64 45 36 26 57 333 59 111 77 58 30 358 320 341 141 134 166 85 79 43 69 120 9 326 282 138 163 171 158 191 180 184 129 137 128 108 77 118 122 142 159 255 18 112 117 128 140 128 122 123 105 80 80 72 64 73 79 81 73
299 227 213 140 255 297 323 287 270 289 273 280 255 223 275 279 79 0 32 34 67 111 110 66 142 77 6 31 50 321 84 54 25 49 14 93 50 97 98 61 5 214 146 160 291 86 172 153 55 352 52 352 19 11 0 15 184 53 357 220 0 18 108 178 169 172 112 130 146 113 241 138 190 114 147 143 140 137 138 126 98 77 88 90 79 87 94 91
231 220 191 140 229 235 247 255 253 250 261 271 227 245 233 118 131 141 134 109 124 151 109 192 224 172 112 105 83 81 335 107 33 39 42 39 56 51 26 31 33 351 166 230 94 247 42 64 76 45 24 2 39 22 345 331 194 178 9 298 256 59 353 21 30 34 123 134 156 163 30 78 88 85 131 169 170 159 153 131 127 117 93 88 107 76 67 80
229 169 213 125 173 69 245 208 223 245 269 249 238 227 318 19 82 193 61 344 105 227 142 184 246 236 83 107 127 43 118 299 98 248 78 58 52 44 29 36 12 360 334 332 123 160 193 100 75 118 64 40 45 28 63 309 308 122 213 204 40 1 317 124 121 39 347 220 105 131 181 191 122 192 172 195 181 175 176 160 165 139 120 110 67 74 77 63
170 158 145 119 108 12 357 224 237 256 257 254 248 167 40 102 19 70 74 338 46 331 195 248 75 326 10 43 22 36 95 228 82 302 82 248 95 24 19 67 11 359 13 328 134 344 313 104 105 104 88 83 26 320 54 43 333 252 179 69 101 20 340 278 98 144 220 163 126 200 191 167 204 192 178 190 194 188 191 180 172 151 152 176 107 111 83 72
157 128 106 63 15 17 261 212 269 246 250 233 69 60 203 122 77 17 30 201 200 205 255 293 95 304 52 336 51 360 57 282 66 295 69 6 78 332 347 14 45 14 350 354 309 92 307 149 141 99 357 62 167 205 158 76 14 7 67 104 250 143 173 148 139 169 188 75 144 192 191 233 226 152 176 185 196 190 190 190 179 175 173 163 138 116 87 94
173 199 126 39 44 8 143 264 259 245 214 159 132 152 60 59 90 23 38 11 332 279 252 42 351 70 320 70 79 53 7 48 3 33 286 36 327 22 19 333 61 30 25 314 255 122 258 304 125 129 312 89 42 328 119 75 103 65 156 156 38 288 23 161 14 350 297 123 162 129 166 242 209 159 181 178 194 189 186 193 196 182 178 199 185 231 160 153
167 182 105 83 47 181 177 229 239 208 229 133 124 65 131 115 85 68 114 286 46 300 59 88 64 114 51 63 331 62 41 38 48 71 10 41 61 78 27 27 343 14 7 13 57 325 6 309 69 74 114 209 64 13 50 1 8 151 201 155 160 355 11 345 125 295 332 157 167 148 175 138 80 104 167 170 180 186 188 191 188 196 182 196 190 125 285 115
298 226 107 74 26 182 219 236 203 123 97 84 68 113 154 104 132 100 106 289 124 16 3 85 101 89 115 138 103 57 88 61 63 69 44 84 354 110 46 2 333 341 340 208 172 41 288 288 76 104 83 57 71 52 27 16 10 7 351 58 14 184 169 214 118 189 264 289 134 241 107 83 71 333 159 167 177 179 184 189 190 199 194 197 188 188 219 231
197 150 112 48 24 203 243 152 82 347 133 130 110 119 116 306 119 110 112 135 41 98 36 84 66 94 120 55 79 118 89 70 60 85 36 50 54 20 41 349 326 325 296 56 28 55 334 332 91 82 53 66 71 84 46 295 345 36 9 68 333 21 301 286 307 127 201 58 312 350 197 92 68 95 231 157 173 181 178 190 192 206 194 203 201 191 196 240
235 88 70 14 338 259 233 102 123 128 91 82 120 98 114 121 87 110 137 107 118 24 103 57 65 119 65 38 135 95 48 78 13 69 72 79 65 30 12 352 328 286 305 116 162 108 254 254 130 107 123 123 127 126 136 196 227 181 79 37 10 33 1 353 17 77 192 139 221 179 138 99 92 152 217 197 168 186 177 191 199 198 198 199 210 194 192 206
104 117 138 135 226 256 233 144 137 114 111 121 108 92 39 72 64 131 100 65 12 120 75 116 145 2 104 293 172 115 338 113 58 95 108 327 82 5 8 356 319 347 332 48 319 82 265 100 295 143 168 157 159 160 155 155 171 54 58 59 32 31 324 20 2 222 134 30 350 301 97 127 124 173 175 178 176 189 184 189 215 208 190 208 212 205 193 194
120 95 74 53 19 266 247 71 138 129 132 135 131 125 135 92 38 25 50 78 53 59 162 95 25 121 111 158 85 98 61 348 124 44 57 81 86 134 32 13 341 46 50 36 6 323 278 50 308 305 52 152 137 125 82 83 69 93 69 94 49 30 10 247 194 196 110 84 278 333 86 93 127 176 178 192 200 204 204 203 199 224 210 210 223 200 188 203
173 135 128 116 27 87 69 340 62 133 133 131 106 85 114 114 119 59 59 82 57 82 65 113 125 128 127 156 124 106 109 61 336 158 187 116 126 118 23 25 29 57 54 46 325 328 66 53 13 7 358 44 55 69 64 323 234 85 81 52 60 23 358 326 253 3 55 125 163 68 9 34 140 170 189 194 206 212 208 206 211 207 211 215 215 215 206 206
96 144 149 133 129 72 104 130 125 155 135 156 132 146 129 115 119 113 334 132 93 96 93 14 122 166 148 159 124 112 78 117 98 124 80 98 76 78 85 2 86 78 141 210 327 283 158 95 35 19 45 46 48 62 47 326 28 89 1 73 58 36 15 24 27 60 350 273 111 59 61 307 63 115 180 202 205 219 218 216 216 216 209 213 215 218 220 222
209 81 330 8 291 138 145 110 109 96 95 219 96 278 132 138 149 125 114 70 130 80 173 152 175 49 144 143 153 116 140 111 137 120 145 110 139 147 133 121 76 107 224 95 277 299 21 93 56 342 76 48 25 34 336 318 1 350 333 321 2 8 7 23 44 54 325 346 16 29 356 312 313 325 2 230 228 222 224 221 228 228 224 213 213 222 224 230
3 92 60 327 258 55 22 81 133 125 115 113 113 171 139 147 122 80 55 144 180 143 311 133 155 128 130 160 276 139 163 138 141 149 176 151 93 131 116 126 87 159 144 97 42 360 296 84 50 6 114 96 79 26 295 289 297 269 274 300 326 320 333 333 336 332 301 308 341 338 324 312 297 297 304 321 17 283 270 263 229 225 226 228 235 235 242 242
139 175 129 17 77 88 93 140 147 149 122 176 152 101 122 137 122 133 119 140 160 144 197 175 138 129 143 183 253 168 165 357 149 169 183 156 142 271 75 23 99 98 61 65 291 84 288 102 310 245 192 115 82 220 243 283 299 293 277 252 269 292 294 279 288 256 269 261 265 285 301 291 69 57 327 12 287 248 239 227 227 233 234 235 241 249 252 256
33 351 345 151 120 89 130 169 173 140 124 154 134 142 151 131 124 115 94 23 14 109 173 136 123 120 125 183 161 64 44 49 115 51 161 197 52 126 316 127 307 110 120 126 66 119 271 98 230 253 253 122 152 285 273 278 273 278 282 273 258 255 265 232 262 319 265 307 308 286 275 346 83 54 355 242 241 235 236 228 228 228 234 238 246 256 263 263
304 120 233 286 123 261 165 130 143 179 114 60 63 141 148 130 125 132 102 60 49 45 33 117 145 160 124 141 93 80 92 76 67 93 132 111 101 95 46 82 3 34 98 84 326 34 46 156 199 228 265 71 74 279 283 278 263 245 229 256 280 247 267 295 271 250 261 297 282 273 317 34 359 357 306 263 235 252 248 240 235 233 241 253 252 257 264 264